Regional Weather Roundup
Issued by NWS Bismarck, ND

Home | Current Version | Previous Version | Text Only | Print | Product List | Glossary On
Versions: 1 2 3 4 5 6 7 8 9 10 11 12 13 14 15 16 17 18 19 20 21 22 23 24 25 26 27 28 29 30 31 32 33 34 35 36 37 38 39 40 41 42 43 44 45 46 47 48 49 50
000
ASUS43 KBIS 051010
RWRBIS

NWR BROADCAST TEXT
NATIONAL WEATHER SERVICE BISMARCK ND
500 AM CDT TUE MAY 05 2015

NOTE: "FAIR" INDICATES FEW OR NO CLOUDS BELOW 12,000 FEET WITH NO
SIGNIFICANT WEATHER AND/OR OBSTRUCTIONS TO VISIBILITY.


CITY           SKY/WX    TMP DP  RH WIND       PRES   REMARKS
WILLISTON      CLEAR     50  28  42 S8        29.97F
MINOT          CLOUDY    55  27  34 SE12      30.05S
MINOT AFB      CLOUDY    50  35  55 SE9       30.04S
BISMARCK       MOCLDY    50  28  42 E9        30.08F
DICKINSON      CLEAR     42  27  55 SE8       29.99F
GARRISON         N/A     51  32  48 SE7       30.05F
HETTINGER ARPT CLOUDY    47  28  47 E9        30.02F
JAMESTOWN      PTCLDY    44  28  53 S7        30.14S
BEACH          FAIR      39  28  65 SE14      29.97F
CARRINGTON     PTSUNNY   48  27  43 S14       30.14S
CROSBY         FAIR      46  30  53 S12       29.98S
HARVEY         CLOUDY    55  28  35 SE10      30.10F
HAZEN          CLOUDY    54  27  35 SE16G24   30.05S
LINTON         FAIR      50  30  46 SE15      30.09S
MANDAN         FAIR      50  27  40 SE6       30.08F
OAKES            N/A     45  32  61 E12       30.15S
STANLEY        PTSUNNY   45  37  76 S9        30.03F
WATFORD CITY   FAIR      52  25  35 S17G24    29.97S
$$

CITY           SKY/WX    TMP DP  RH WIND       PRES   REMARKS
GRAND FORKS    CLEAR     37  26  64 S6        30.16S
GRAND FORKS AF CLEAR     38  25  59 S7        30.15F
DEVILS LAKE    CLOUDY    52  34  50 S12       30.13S
FARGO          CLEAR     49  29  46 SE8       30.17S
CANDO          CLOUDY    50  32  50 S9        30.13S
CAVALIER       FAIR      41  27  56 S6        30.14S
GRAFTON        FAIR      37  25  60 S7        30.16S
GWINNER        SUNNY     45  30  57 SE6       30.18R
LANGDON        FAIR      45  27  49 S12       30.14S
WALHALLA       FAIR      52  25  35 S7        30.13S
$$

CITY           SKY/WX    TMP DP  RH WIND       PRES   REMARKS
ABERDEEN       MOCLDY    50  32  50 CALM      30.14R
MOBRIDGE       CLEAR     50  30  46 SE13      30.06R
BUFFALO          N/A     41  28  60 SE7       29.92F
RAPID CITY     CLEAR     40  34  79 SE5       30.02F
GLASGOW        CLEAR     45  35  68 E15       29.83F
SIDNEY         CLEAR     46  28  49 SE9       29.96S
WOLF POINT     CLEAR     49  34  56 SE5       29.90R
GLENDIVE       CLEAR     45  32  61 SE8       29.94F
MILES CITY     CLEAR     51  34  52 SE16      29.87F
BAKER          CLEAR     42  31  64 SE12      29.96F
$$

CITY           SKY/WX    TMP DP  RH WIND       PRES   REMARKS
BILLINGS       PTCLDY    49  41  74 W3        29.83R
GREAT FALLS    PTCLDY    55  35  47 S9        29.76F
REGINA         CLOUDY    50  37  62 SE15      29.91F
ESTEVAN        CLEAR     48  34  57 SE13      29.99S
$$



USA.gov is the U.S. government's official web portal to all federal, state and local government web resources and services.